Regional Weather Roundup
Issued by NWS

Home | Current Version | Previous Version | Text Only | Print | Product List | Glossary Off
Versions: 1 2 3 4 5 6 7 8 9 10 11 12 13 14 15 16 17 18 19 20 21 22 23 24 25 26 27 28 29 30 31 32 33 34 35 36 37 38 39 40 41 42 43 44 45 46 47 48 49 50

000
ASUS43 KIND 181609
RWRIN

WEATHER ROUNDUP FOR INDIANA
NATIONAL WEATHER SERVICE INDIANAPOLIS IN
1100 AM EST THU JAN 18 2018

NOTE: "FAIR" INDICATES FEW OR NO CLOUDS BELOW 12,000 FEET WITH NO
SIGNIFICANT WEATHER AND/OR OBSTRUCTIONS TO VISIBILITY.

* - STATION DOES NOT REPORT WEATHER SUCH AS PRECIPITATION OR FOG.

+ - STATION NOT QUALITY CONTROLLED BY THE NATIONAL WEATHER SERVICE.
    USE DATA WITH CAUTION...ESPECIALLY DEWPOINT AND RELATIVE
    HUMIDITY OBSERVATIONS.

INZ001>003-010>013-019-020-181700-
NORTHWEST INDIANA

CITY           SKY/WX    TMP DP  RH WIND       PRES   REMARKS
GARY /AIRPORT/ MOSUNNY   23  10  58 SW12G25   30.16S WCI  12
KNOX *+        FAIR      19  12  73 SW15      30.18F WCI   5
LA PORTE +     FAIR      19  11  72 SW18      30.15F WCI   3
MICHIGAN CITY+ FAIR      23  12  63 SW15      30.15F WCI  10
MONTICELLO +   FAIR      20  10  65 SW16      30.22F WCI   6
RENSSELAER +   FAIR      21  10  63 SW14      30.21S WCI   8
VALPARAISO     FAIR      20  12  71 SW17G26   30.17R WCI   5

$$

LMZ046-743>745-181700-
SOUTHERN LAKE MICHIGAN

STATION/POSITION TIME  TEMP    WIND        PRES    WAVE
                       AIR SEA DIR/SP/G            HT
                 (UTC) (F)     (DEG/KT/KT) (MB)    (FT)
BURNS HARBOR     1542   20     210/ 15/ 25 1021.3S
MICHIGAN CITY    1540   20     190/ 17/ 20   N/A

$$

INZ004-005-014>016-021>024-181700-
NORTH CENTRAL INDIANA

CITY           SKY/WX    TMP DP  RH WIND       PRES   REMARKS
ELKHART        FAIR      21  10  63 SW13G20   30.15R WCI   9
GOSHEN         FAIR      19  11  70 SW17G29   30.15S WCI   4
LOGANSPORT +   FAIR      19  12  73 SW16      30.23F WCI   5
PERU/GRISSOM   FAIR      19  12  74 W17       30.21F WCI   4
ROCHESTER +    FAIR      23  14  68 SW17G26   30.20S WCI   9
SOUTH BEND     FAIR      18  10  71 SW16G24   30.15R WCI   3
WARSAW +       FAIR      21  10  63 SW13G21   30.17S WCI   9

$$

INZ006>009-017-018-025>027-181700-
NORTHEAST INDIANA

CITY           SKY/WX    TMP DP  RH WIND       PRES   REMARKS
AUBURN +       FAIR      23  -8  25 SW9       30.15F WCI  13
FORT WAYNE     FAIR      21  12  68 SW18      30.19S WCI   6
HUNTINGTON +   FAIR      20  10  63 SW12G22   30.20S WCI   8
KENDALLVILLE + FAIR      20  12  71 W18       30.13S WCI   5

$$

INZ028-029-035-036-043>045-051>053-181700-
WEST CENTRAL INDIANA

CITY           SKY/WX    TMP DP  RH WIND       PRES   REMARKS
CRAWFORDSVL +  FAIR      16  10  75 MISG        N/A
GREENCASTLE +  FAIR      19   9  63 SW9       30.33F WCI   9
LAFAYETTE      FAIR      20  11  68 SW15G23   30.26F WCI   6
TERRE HAUTE    FAIR      19   8  62 SW10      30.37S WCI   7

$$

INZ030>032-037>040-046>048-054>057-064-065-181700-
CENTRAL INDIANA

CITY           SKY/WX    TMP DP  RH WIND       PRES   REMARKS
ANDERSON       SUNNY     21  10  63 SW12G17   30.27S WCI   9
COLUMBUS       SUNNY     19   9  63 SW13      30.37S WCI   7
FISHERS *+     FAIR      21  14  73 SW7       30.30S WCI  13
FRANKFORT +    FAIR      22  14  70 SW18G25   30.26F WCI   8
GREENWOOD *+   FAIR      21  10  62 SW15G21   30.33S WCI   8
INDIANAPOLIS   FAIR      18   9  68 SW18G24   30.31F WCI   2
-EAGLE CREEK   FAIR      20   9  62 SW8       30.30S WCI  10
MARION +       FAIR      17  11  75 SW17      30.24F WCI   2
MT COMFORT *+  FAIR      21  14  73 SW12G18   30.29F WCI   9
SHELBYVILLE    FAIR      19   9  65 SW14      30.32F WCI   6
ZIONSVILLE +   FAIR      18   9  69 SW17      30.28S WCI   3

$$

INZ033-034-041-042-049-050-058-059-181700-
EAST CENTRAL INDIANA

CITY           SKY/WX    TMP DP  RH WIND       PRES   REMARKS
MUNCIE         FAIR      21   9  59 SW12G20   30.25S WCI   9
RICHMOND +     FAIR      18  10  73 SW17      30.28S WCI   2

$$

INZ060-061-067>069-081>083-085>088-181700-
SOUTHWEST INDIANA

CITY           SKY/WX    TMP DP  RH WIND       PRES   REMARKS
EVANSVILLE     FAIR      18  12  77 S8        30.48R WCI   8
HUNTINGBURG +  FAIR      20  12  71 S9        30.47R WCI   9
WASHINGTON +   FAIR      20   8  59 SW15      30.43S WCI   6

$$

INZ062-063-066-070>080-084-089>092-181700-
SOUTH CENTRAL AND SOUTHEAST INDIANA

CITY           SKY/WX    TMP DP  RH WIND       PRES   REMARKS
BATESVILLE *+    N/A    N/A N/A N/A MISG        N/A
BEDFORD +      FAIR      21  10  63 SW12      30.39S WCI   9
BLOOMINGTON    FAIR      20   8  60 SW16G22   30.36S WCI   6
FRENCH LICK *+ FAIR      19   7  58 SW8G16    30.42S WCI   9
MADISON *+     FAIR      21  10  63 SW8       30.42S WCI  12
NORTH VERNON + FAIR      16   9  73 SW10G16   30.38S WCI   3
SEYMOUR +      FAIR      23   9  54 SW7       30.40S WCI  15

$$





USA.gov is the U.S. government's official web portal to all federal, state and local government web resources and services.